Time,TemperatureF,DewpointF,PressureIn,WindDirection,WindDirectionDegrees,WindSpeedMPH,WindSpeedGustMPH,Humidity,HourlyPrecipIn,Conditions,Clouds,dailyrainin,SoftwareType,DateUTC
2013-05-29 00:02:00,77.0,71.0,30.07,North,0,0.0,0.0,81,-99.99,,,-99.99,,2013-05-29 04:02:00,
2013-05-29 00:13:00,77.0,70.0,30.06,North,0,0.0,0.0,80,-99.99,,,-99.99,,2013-05-29 04:13:00,
2013-05-29 00:23:00,77.0,70.0,30.06,North,0,0.0,0.0,80,-99.99,,,-99.99,,2013-05-29 04:23:00,
2013-05-29 00:33:00,77.0,70.0,30.06,North,0,0.0,0.0,79,-99.99,,,-99.99,,2013-05-29 04:33:00,
2013-05-29 00:42:00,77.0,70.0,30.06,North,0,0.0,0.0,79,-99.99,,,-99.99,,2013-05-29 04:42:00,
2013-05-29 00:53:00,77.0,70.0,30.07,North,0,0.0,0.0,79,-99.99,,,-99.99,,2013-05-29 04:53:00,
2013-05-29 01:02:00,77.0,70.0,30.06,North,0,0.0,0.0,80,-99.99,,,-99.99,,2013-05-29 05:02:00,
2013-05-29 01:12:00,77.0,70.0,30.06,North,0,0.0,0.0,80,-99.99,,,-99.99,,2013-05-29 05:12:00,
2013-05-29 01:22:00,77.0,71.0,30.06,North,0,0.0,0.0,81,-99.99,,,-99.99,,2013-05-29 05:22:00,
2013-05-29 01:32:00,77.0,71.0,30.06,North,0,0.0,0.0,81,-99.99,,,-99.99,,2013-05-29 05:32:00,
2013-05-29 01:42:00,77.0,71.0,30.06,North,0,0.0,0.0,81,-99.99,,,-99.99,,2013-05-29 05:42:00,
2013-05-29 01:52:00,77.0,68.0,30.05,North,0,0.0,0.0,74,-99.99,,,-99.99,,2013-05-29 05:52:00,
2013-05-29 02:02:00,77.0,71.0,30.05,North,0,0.0,0.0,83,-99.99,,,-99.99,,2013-05-29 06:02:00,
2013-05-29 02:12:00,77.0,71.0,30.05,North,0,0.0,0.0,83,-99.99,,,-99.99,,2013-05-29 06:12:00,
2013-05-29 02:21:00,77.0,71.0,30.04,North,0,0.0,0.0,83,-99.99,,,-99.99,,2013-05-29 06:21:00,
2013-05-29 02:32:00,77.0,70.0,30.04,North,0,0.0,0.0,78,-99.99,,,-99.99,,2013-05-29 06:32:00,
2013-05-29 02:42:00,77.0,70.0,30.04,North,0,0.0,0.0,78,-99.99,,,-99.99,,2013-05-29 06:42:00,
2013-05-29 02:52:00,77.0,70.0,30.03,North,0,0.0,0.0,80,-99.99,,,-99.99,,2013-05-29 06:52:00,
2013-05-29 03:01:00,77.0,70.0,30.04,North,0,0.0,0.0,80,-99.99,,,-99.99,,2013-05-29 07:01:00,
2013-05-29 03:11:00,77.0,70.0,30.04,North,0,0.0,0.0,80,-99.99,,,-99.99,,2013-05-29 07:11:00,
2013-05-29 03:21:00,77.0,71.0,30.03,North,0,0.0,0.0,81,-99.99,,,-99.99,,2013-05-29 07:21:00,
2013-05-29 03:34:00,75.0,68.0,30.02,North,0,0.0,0.0,80,-99.99,,,-99.99,,2013-05-29 07:34:00,
2013-05-29 03:42:00,75.0,68.0,30.02,North,0,0.0,0.0,80,-99.99,,,-99.99,,2013-05-29 07:42:00,
2013-05-29 03:52:00,73.0,69.0,30.03,North,0,0.0,0.0,87,-99.99,,,-99.99,,2013-05-29 07:52:00,
2013-05-29 04:02:00,74.0,70.0,30.03,North,0,0.0,0.0,86,-99.99,,,-99.99,,2013-05-29 08:02:00,
2013-05-29 04:11:00,74.0,70.0,30.03,North,0,0.0,0.0,86,-99.99,,,-99.99,,2013-05-29 08:11:00,
2013-05-29 04:22:00,75.0,70.0,30.03,North,0,0.0,0.0,85,-99.99,,,-99.99,,2013-05-29 08:22:00,
2013-05-29 04:32:00,74.0,70.0,30.02,North,0,0.0,0.0,88,-99.99,,,-99.99,,2013-05-29 08:32:00,
2013-05-29 04:42:00,74.0,70.0,30.02,North,0,0.0,0.0,88,-99.99,,,-99.99,,2013-05-29 08:42:00,
2013-05-29 04:52:00,74.0,70.0,30.02,North,0,0.0,0.0,88,-99.99,,,-99.99,,2013-05-29 08:52:00,
2013-05-29 05:01:00,73.0,69.0,30.02,North,0,0.0,0.0,87,-99.99,,,-99.99,,2013-05-29 09:01:00,
2013-05-29 05:11:00,73.0,69.0,30.02,North,0,0.0,0.0,87,-99.99,,,-99.99,,2013-05-29 09:11:00,
2013-05-29 05:21:00,73.0,69.0,30.03,North,0,0.0,0.0,87,-99.99,,,-99.99,,2013-05-29 09:21:00,
2013-05-29 05:33:00,75.0,71.0,30.02,North,0,0.0,0.0,87,-99.99,,,-99.99,,2013-05-29 09:33:00,
2013-05-29 05:42:00,75.0,71.0,30.02,North,0,0.0,0.0,87,-99.99,,,-99.99,,2013-05-29 09:42:00,
2013-05-29 05:52:00,75.0,70.0,30.02,North,0,0.0,0.0,85,-99.99,,,-99.99,,2013-05-29 09:52:00,
2013-05-29 06:03:00,75.0,71.0,30.03,North,0,0.0,0.0,86,-99.99,,,-99.99,,2013-05-29 10:03:00,
2013-05-29 06:12:00,75.0,71.0,30.03,North,0,0.0,0.0,86,-99.99,,,-99.99,,2013-05-29 10:12:00,
2013-05-29 06:22:00,73.0,70.0,30.03,North,0,0.0,0.0,90,-99.99,,,-99.99,,2013-05-29 10:22:00,
2013-05-29 06:33:00,72.0,70.0,30.03,North,0,0.0,0.0,93,-99.99,,,-99.99,,2013-05-29 10:33:00,
2013-05-29 06:42:00,72.0,70.0,30.03,North,0,0.0,0.0,93,-99.99,,,-99.99,,2013-05-29 10:42:00,
2013-05-29 06:53:00,74.0,71.0,30.02,North,0,0.0,0.0,89,-99.99,,,-99.99,,2013-05-29 10:53:00,
2013-05-29 07:02:00,75.0,72.0,30.02,North,0,0.0,0.0,90,-99.99,,,-99.99,,2013-05-29 11:02:00,
2013-05-29 07:12:00,75.0,72.0,30.02,North,0,0.0,0.0,90,-99.99,,,-99.99,,2013-05-29 11:12:00,
2013-05-29 07:22:00,74.0,70.0,30.03,North,0,0.0,0.0,87,-99.99,,,-99.99,,2013-05-29 11:22:00,
2013-05-29 07:32:00,75.0,70.0,30.03,North,0,0.0,0.0,85,-99.99,,,-99.99,,2013-05-29 11:32:00,
2013-05-29 07:42:00,75.0,70.0,30.03,North,0,0.0,0.0,85,-99.99,,,-99.99,,2013-05-29 11:42:00,
2013-05-29 07:52:00,76.0,69.0,30.03,North,0,0.0,0.0,80,-99.99,,,-99.99,,2013-05-29 11:52:00,
2013-05-29 08:01:00,76.0,70.0,30.05,North,0,0.0,0.0,81,-99.99,,,-99.99,,2013-05-29 12:01:00,
2013-05-29 08:11:00,76.0,70.0,30.05,North,0,0.0,0.0,81,-99.99,,,-99.99,,2013-05-29 12:11:00,
2013-05-29 08:22:00,76.0,70.0,30.04,North,0,0.0,0.0,83,-99.99,,,-99.99,,2013-05-29 12:22:00,
2013-05-29 08:32:00,71.0,68.0,30.05,North,0,0.0,0.0,89,-99.99,,,-99.99,,2013-05-29 12:32:00,
2013-05-29 08:42:00,71.0,68.0,30.05,North,0,0.0,0.0,89,-99.99,,,-99.99,,2013-05-29 12:42:00,
2013-05-29 08:52:00,73.0,69.0,30.06,North,0,0.0,0.0,87,-99.99,,,-99.99,,2013-05-29 12:52:00,
2013-05-29 09:02:00,74.0,71.0,30.06,North,0,0.0,0.0,89,-99.99,,,-99.99,,2013-05-29 13:02:00,
2013-05-29 09:11:00,74.0,71.0,30.06,North,0,0.0,0.0,89,-99.99,,,-99.99,,2013-05-29 13:11:00,
2013-05-29 09:22:00,73.0,69.0,30.06,North,0,0.0,0.0,87,-99.99,,,-99.99,,2013-05-29 13:22:00,
2013-05-29 09:32:00,74.0,71.0,30.06,North,0,0.0,0.0,91,-99.99,,,-99.99,,2013-05-29 13:32:00,
2013-05-29 09:42:00,74.0,71.0,30.06,North,0,0.0,0.0,91,-99.99,,,-99.99,,2013-05-29 13:42:00,
2013-05-29 09:53:00,74.0,71.0,30.07,North,0,0.0,0.0,91,-99.99,,,-99.99,,2013-05-29 13:53:00,
2013-05-29 10:02:00,74.0,71.0,30.06,North,0,0.0,0.0,90,-99.99,,,-99.99,,2013-05-29 14:02:00,
2013-05-29 10:11:00,74.0,71.0,30.06,North,0,0.0,0.0,90,-99.99,,,-99.99,,2013-05-29 14:11:00,
2013-05-29 10:21:00,75.0,71.0,30.07,North,0,0.0,0.0,88,-99.99,,,-99.99,,2013-05-29 14:21:00,
2013-05-29 10:32:00,76.0,71.0,30.06,North,0,0.0,0.0,84,-99.99,,,-99.99,,2013-05-29 14:32:00,
2013-05-29 10:42:00,76.0,71.0,30.06,North,0,0.0,0.0,84,-99.99,,,-99.99,,2013-05-29 14:42:00,
2013-05-29 10:52:00,76.0,70.0,30.06,North,0,0.0,0.0,82,-99.99,,,-99.99,,2013-05-29 14:52:00,
2013-05-29 11:01:00,76.0,70.0,30.07,North,0,0.0,0.0,83,-99.99,,,-99.99,,2013-05-29 15:01:00,
2013-05-29 11:11:00,76.0,70.0,30.07,North,0,0.0,0.0,82,-99.99,,,-99.99,,2013-05-29 15:11:00,
2013-05-29 11:21:00,76.0,70.0,30.07,North,0,0.0,0.0,82,-99.99,,,-99.99,,2013-05-29 15:21:00,
2013-05-29 11:33:00,76.0,70.0,30.07,North,0,0.0,0.0,82,-99.99,,,-99.99,,2013-05-29 15:33:00,
2013-05-29 11:42:00,76.0,70.0,30.07,North,0,0.0,0.0,82,-99.99,,,-99.99,,2013-05-29 15:42:00,
2013-05-29 11:53:00,77.0,71.0,30.08,North,0,0.0,0.0,81,-99.99,,,-99.99,,2013-05-29 15:53:00,
2013-05-29 12:03:00,77.0,70.0,30.08,North,0,0.0,0.0,79,-99.99,,,-99.99,,2013-05-29 16:03:00,
2013-05-29 12:12:00,77.0,70.0,30.08,North,0,0.0,0.0,79,-99.99,,,-99.99,,2013-05-29 16:12:00,
2013-05-29 12:22:00,77.0,69.0,30.08,North,0,0.0,0.0,76,-99.99,,,-99.99,,2013-05-29 16:22:00,
2013-05-29 12:32:00,77.0,70.0,30.08,North,0,0.0,0.0,78,-99.99,,,-99.99,,2013-05-29 16:32:00,
2013-05-29 12:42:00,77.0,70.0,30.08,North,0,0.0,0.0,78,-99.99,,,-99.99,,2013-05-29 16:42:00,
2013-05-29 12:52:00,77.0,71.0,30.08,North,0,0.0,0.0,81,-99.99,,,-99.99,,2013-05-29 16:52:00,
2013-05-29 13:02:00,77.0,69.0,30.07,North,0,0.0,0.0,77,-99.99,,,-99.99,,2013-05-29 17:02:00,
2013-05-29 13:12:00,77.0,69.0,30.07,North,0,0.0,0.0,77,-99.99,,,-99.99,,2013-05-29 17:12:00,
2013-05-29 13:22:00,78.0,69.0,30.07,North,0,0.0,0.0,75,-99.99,,,-99.99,,2013-05-29 17:22:00,
2013-05-29 13:32:00,77.0,70.0,30.07,North,0,0.0,0.0,78,-99.99,,,-99.99,,2013-05-29 17:32:00,
2013-05-29 13:42:00,77.0,70.0,30.07,North,0,0.0,0.0,78,-99.99,,,-99.99,,2013-05-29 17:42:00,
2013-05-29 13:52:00,77.0,70.0,30.06,North,0,0.0,0.0,80,-99.99,,,-99.99,,2013-05-29 17:52:00,
2013-05-29 14:01:00,78.0,71.0,30.07,North,0,0.0,0.0,79,-99.99,,,-99.99,,2013-05-29 18:01:00,
2013-05-29 14:13:00,77.0,69.0,30.06,North,0,0.0,0.0,77,-99.99,,,-99.99,,2013-05-29 18:13:00,
2013-05-29 14:22:00,77.0,69.0,30.06,North,0,0.0,0.0,77,-99.99,,,-99.99,,2013-05-29 18:22:00,
2013-05-29 14:32:00,77.0,71.0,30.06,North,0,0.0,0.0,81,-99.99,,,-99.99,,2013-05-29 18:32:00,
2013-05-29 14:42:00,77.0,71.0,30.06,North,0,0.0,0.0,81,-99.99,,,-99.99,,2013-05-29 18:42:00,
2013-05-29 14:52:00,77.0,71.0,30.06,North,0,0.0,0.0,81,-99.99,,,-99.99,,2013-05-29 18:52:00,
2013-05-29 15:02:00,77.0,71.0,30.07,North,0,0.0,0.0,81,-99.99,,,-99.99,,2013-05-29 19:02:00,
2013-05-29 15:11:00,77.0,71.0,30.06,North,0,0.0,0.0,81,-99.99,,,-99.99,,2013-05-29 19:11:00,
2013-05-29 15:22:00,77.0,71.0,30.06,North,0,0.0,0.0,81,-99.99,,,-99.99,,2013-05-29 19:22:00,
2013-05-29 15:32:00,77.0,70.0,30.05,North,0,0.0,0.0,79,-99.99,,,-99.99,,2013-05-29 19:32:00,
2013-05-29 15:44:00,77.0,70.0,30.04,North,0,0.0,0.0,79,-99.99,,,-99.99,,2013-05-29 19:44:00,
2013-05-29 15:53:00,77.0,70.0,30.04,North,0,0.0,0.0,79,-99.99,,,-99.99,,2013-05-29 19:53:00,
2013-05-29 16:03:00,78.0,71.0,30.04,North,0,0.0,0.0,80,-99.99,,,-99.99,,2013-05-29 20:03:00,
2013-05-29 16:11:00,78.0,71.0,30.04,North,0,0.0,0.0,80,-99.99,,,-99.99,,2013-05-29 20:11:00,
2013-05-29 16:23:00,78.0,71.0,30.03,North,0,0.0,0.0,80,-99.99,,,-99.99,,2013-05-29 20:23:00,
2013-05-29 16:33:00,77.0,71.0,30.04,North,0,0.0,0.0,82,-99.99,,,-99.99,,2013-05-29 20:33:00,
2013-05-29 16:42:00,77.0,71.0,30.04,North,0,0.0,0.0,82,-99.99,,,-99.99,,2013-05-29 20:42:00,
2013-05-29 16:53:00,76.0,71.0,30.04,North,0,0.0,0.0,84,-99.99,,,-99.99,,2013-05-29 20:53:00,
2013-05-29 17:02:00,72.0,66.0,30.05,North,0,0.0,0.0,82,-99.99,,,-99.99,,2013-05-29 21:02:00,
2013-05-29 17:12:00,72.0,66.0,30.05,North,0,0.0,0.0,82,-99.99,,,-99.99,,2013-05-29 21:12:00,
2013-05-29 17:22:00,73.0,69.0,30.06,North,0,0.0,0.0,87,-99.99,,,-99.99,,2013-05-29 21:22:00,
2013-05-29 17:33:00,73.0,69.0,30.05,North,0,0.0,0.0,87,-99.99,,,-99.99,,2013-05-29 21:33:00,
2013-05-29 17:43:00,73.0,69.0,30.05,North,0,0.0,0.0,87,-99.99,,,-99.99,,2013-05-29 21:43:00,
2013-05-29 17:53:00,73.0,69.0,30.04,North,0,0.0,0.0,87,-99.99,,,-99.99,,2013-05-29 21:53:00,
2013-05-29 18:03:00,73.0,67.0,30.04,North,0,0.0,0.0,81,-99.99,,,-99.99,,2013-05-29 22:03:00,
2013-05-29 18:12:00,73.0,67.0,30.04,North,0,0.0,0.0,81,-99.99,,,-99.99,,2013-05-29 22:12:00,
2013-05-29 18:23:00,75.0,65.0,30.03,North,0,0.0,0.0,72,-99.99,,,-99.99,,2013-05-29 22:23:00,
2013-05-29 18:33:00,76.0,67.0,30.03,North,0,0.0,0.0,74,-99.99,,,-99.99,,2013-05-29 22:33:00,
2013-05-29 18:42:00,77.0,70.0,30.03,North,0,0.0,0.0,78,-99.99,,,-99.99,,2013-05-29 22:42:00,
2013-05-29 18:53:00,77.0,70.0,30.03,North,0,0.0,0.0,78,-99.99,,,-99.99,,2013-05-29 22:53:00,
2013-05-29 19:02:00,77.0,68.0,30.02,North,0,0.0,0.0,75,-99.99,,,-99.99,,2013-05-29 23:02:00,
2013-05-29 19:12:00,77.0,68.0,30.02,North,0,0.0,0.0,75,-99.99,,,-99.99,,2013-05-29 23:12:00,
2013-05-29 19:22:00,76.0,68.0,30.02,North,0,0.0,0.0,77,-99.99,,,-99.99,,2013-05-29 23:22:00,
2013-05-29 19:33:00,76.0,69.0,30.02,North,0,0.0,0.0,80,-99.99,,,-99.99,,2013-05-29 23:33:00,
2013-05-29 19:42:00,76.0,70.0,30.02,North,0,0.0,0.0,81,-99.99,,,-99.99,,2013-05-29 23:42:00,
2013-05-29 19:53:00,76.0,70.0,30.02,North,0,0.0,0.0,81,-99.99,,,-99.99,,2013-05-29 23:53:00,
2013-05-29 20:01:00,77.0,71.0,30.03,North,0,0.0,0.0,81,-99.99,,,-99.99,,2013-05-30 00:01:00,
2013-05-29 20:11:00,77.0,71.0,30.03,North,0,0.0,0.0,81,-99.99,,,-99.99,,2013-05-30 00:11:00,
2013-05-29 20:22:00,75.0,66.0,30.02,North,0,0.0,0.0,74,-99.99,,,-99.99,,2013-05-30 00:22:00,
2013-05-29 20:32:00,76.0,64.0,30.03,North,0,0.0,0.0,67,-99.99,,,-99.99,,2013-05-30 00:32:00,
2013-05-29 20:42:00,76.0,64.0,30.03,North,0,0.0,0.0,67,-99.99,,,-99.99,,2013-05-30 00:42:00,
2013-05-29 20:52:00,77.0,66.0,30.03,North,0,0.0,0.0,70,-99.99,,,-99.99,,2013-05-30 00:52:00,
2013-05-29 21:01:00,77.0,67.0,30.03,North,0,0.0,0.0,71,-99.99,,,-99.99,,2013-05-30 01:01:00,
2013-05-29 21:11:00,77.0,67.0,30.03,North,0,0.0,0.0,71,-99.99,,,-99.99,,2013-05-30 01:11:00,
2013-05-29 21:22:00,77.0,70.0,30.03,North,0,0.0,0.0,78,-99.99,,,-99.99,,2013-05-30 01:22:00,
2013-05-29 21:32:00,77.0,70.0,30.03,North,0,0.0,0.0,80,-99.99,,,-99.99,,2013-05-30 01:32:00,
2013-05-29 21:42:00,77.0,70.0,30.03,North,0,0.0,0.0,80,-99.99,,,-99.99,,2013-05-30 01:42:00,
2013-05-29 21:52:00,77.0,70.0,30.03,North,0,0.0,0.0,80,-99.99,,,-99.99,,2013-05-30 01:52:00,
2013-05-29 22:01:00,77.0,70.0,30.03,North,0,0.0,0.0,80,-99.99,,,-99.99,,2013-05-30 02:01:00,
2013-05-29 22:11:00,77.0,70.0,30.03,North,0,0.0,0.0,80,-99.99,,,-99.99,,2013-05-30 02:11:00,
2013-05-29 22:21:00,77.0,70.0,30.04,North,0,0.0,0.0,79,-99.99,,,-99.99,,2013-05-30 02:21:00,
2013-05-29 22:32:00,77.0,69.0,30.04,North,0,0.0,0.0,77,-99.99,,,-99.99,,2013-05-30 02:32:00,
2013-05-29 22:42:00,77.0,69.0,30.04,North,0,0.0,0.0,77,-99.99,,,-99.99,,2013-05-30 02:42:00,
2013-05-29 22:52:00,77.0,69.0,30.04,North,0,0.0,0.0,77,-99.99,,,-99.99,,2013-05-30 02:52:00,
2013-05-29 23:02:00,73.0,68.0,30.06,North,0,0.0,0.0,84,-99.99,,,-99.99,,2013-05-30 03:02:00,
2013-05-29 23:11:00,75.0,67.0,30.06,North,0,0.0,0.0,77,-99.99,,,-99.99,,2013-05-30 03:11:00,
2013-05-29 23:21:00,75.0,67.0,30.06,North,0,0.0,0.0,77,-99.99,,,-99.99,,2013-05-30 03:21:00,
2013-05-29 23:33:00,75.0,69.0,30.06,North,0,0.0,0.0,82,-99.99,,,-99.99,,2013-05-30 03:33:00,
2013-05-29 23:43:00,75.0,69.0,30.06,North,0,0.0,0.0,82,-99.99,,,-99.99,,2013-05-30 03:43:00,
2013-05-29 23:53:00,76.0,69.0,30.06,North,0,0.0,0.0,80,-99.99,,,-99.99,,2013-05-30 03:53:00,